Weather History for Faith, SD

Change the Weather History Date:

Thursday, October 18, 2012

  Actual Average Record
Temperature  
Mean Temperature 40 °F 46 °F  
Max Temperature 48 °F 58 °F 82 °F (2000)
Min Temperature 32 °F 35 °F 24 °F (2006)
Degree Days  
Heating Degree Days 25 19  
Month to date heating degree days 319 285  
Since 1 July heating degree days 435 517  
Cooling Degree Days 0 0  
Month to date cooling degree days 0 0  
Year to date cooling degree days 971 634  
Moisture  
Dew Point 28 °F    
Average Humidity 61    
Maximum Humidity 82    
Minimum Humidity 40    
Precipitation  
Precipitation 0.00 in 0.08 in 0.72 in (2007)
Month to date precipitation 0.18 0.75  
Year to date precipitation 12.24 15.93  
Sea Level Pressure  
Sea Level Pressure 29.87 in    
Wind  
Wind Speed 35 mph (NW)    
Max Wind Speed 48 mph    
Max Gust Speed 71 mph    
T = Trace of Precipitation, MM = Missing Value Source: NWS Daily Summary

Daily Weather History Graph

Daily Weather History Graph

Search for Another Location

Airport:

Trip Planner

Search our weather history database for the weather conditions in past years. The results will help you decide how hot, cold, wet, or windy it might be!

Date:

Astronomy

Oct. 18, 2012 Rise Set
Actual Time 7:08 AM MDT 5:57 PM MDT
Civil Twilight 6:38 AM MDT 6:26 PM MDT
Nautical Twilight 6:04 AM MDT 7:00 PM MDT
Astronomical Twilight 5:30 AM MDT 7:34 PM MDT
Moon 11:02 AM MDT (10/18) 8:23 PM MDT (10/18)
Length of Visible Light 11h 48m
Length of Day
10h 48m
Waxing Crescent, 15% of the Moon is Illuminated
Oct 18
Waxing Crescent
Oct 21
First Quarter
Oct 29
Full
Nov 6
Last Quarter
Nov 13
New

Hourly Weather History & Observations

Time (MDT) Temp. Windchill Dew Point Humidity Pressure Visibility Wind Dir Wind Speed Gust Speed Precip Events Conditions
12:56 AM 45.0 °F 33.1 °F 21.0 °F 39% 29.66 in - NW 47.2 mph 64.4 mph N/A   Unknown
1:56 AM 43.0 °F 31.1 °F 21.9 °F 43% 29.69 in - WNW 40.3 mph 57.5 mph N/A   Unknown
2:56 AM 41.0 °F 28.6 °F 23.0 °F 49% 29.70 in - WNW 38.0 mph 51.8 mph N/A   Unknown
3:56 AM 42.1 °F 29.0 °F 24.1 °F 49% 29.70 in - NW 47.2 mph 61.0 mph N/A   Unknown
4:56 AM 41.0 °F 27.3 °F 26.1 °F 55% 29.71 in - NW 48.3 mph 61.0 mph N/A   Unknown
5:56 AM 41.0 °F 28.5 °F 28.0 °F 60% 29.73 in - NW 39.1 mph 57.5 mph N/A   Unknown
6:56 AM 41.0 °F 27.3 °F 28.0 °F 60% 29.74 in - NW 48.3 mph 58.7 mph N/A   Unknown
7:56 AM 41.0 °F 27.7 °F 28.9 °F 62% 29.77 in - NW 44.9 mph 58.7 mph N/A   Unknown
8:56 AM 41.0 °F 28.6 °F 28.9 °F 62% 29.80 in - NW 38.0 mph 56.4 mph N/A   Unknown
9:56 AM 41.0 °F 28.2 °F 30.0 °F 65% 29.83 in - NW 41.4 mph 59.8 mph N/A   Unknown
10:56 AM 43.0 °F 30.4 °F 30.0 °F 60% 29.84 in - NW 46.0 mph 56.4 mph N/A   Unknown
11:56 AM 44.1 °F 33.0 °F 30.0 °F 58% 29.88 in - NW 36.8 mph 58.7 mph N/A   Unknown
12:56 PM 45.0 °F 34.0 °F 30.0 °F 56% 29.88 in - NW 39.1 mph 57.5 mph N/A   Unknown
1:56 PM 45.0 °F 33.7 °F 30.0 °F 56% 29.90 in - NW 41.4 mph 56.4 mph N/A   Unknown
2:56 PM 46.0 °F 35.6 °F 30.0 °F 54% 29.92 in - NNW 38.0 mph 52.9 mph N/A   Unknown
3:56 PM 48.0 °F - 30.0 °F 50% 29.94 in - NW 31.1 mph 50.6 mph N/A   Unknown
4:56 PM 46.0 °F 36.9 °F 30.0 °F 54% 29.96 in - NNW 28.8 mph 48.3 mph N/A   Unknown
5:56 PM 43.0 °F 32.9 °F 30.0 °F 60% 29.99 in - NNW 27.6 mph 39.1 mph N/A   Unknown
6:56 PM 42.1 °F 32.1 °F 30.0 °F 62% 30.00 in - NNW 25.3 mph 35.7 mph N/A   Unknown
7:56 PM 39.9 °F 30.0 °F 30.0 °F 68% 30.01 in - NNW 21.9 mph 29.9 mph N/A   Unknown
8:56 PM 37.0 °F 28.9 °F 28.9 °F 73% 30.04 in - NNW 12.7 mph - N/A   Unknown
9:56 PM 37.0 °F 26.7 °F 28.9 °F 73% 30.03 in - NNW 19.6 mph - N/A   Unknown
10:56 PM 34.0 °F 23.8 °F 28.0 °F 79% 30.04 in - NW 16.1 mph - N/A   Unknown
11:56 PM 34.0 °F 22.7 °F 28.0 °F 79% 30.02 in - NNW 19.6 mph - N/A   Unknown